Location: Goettingen
(51.5300°N, 9.9433°E)
Time: 00:45:45
(UTC+02:00)

ISS - Pass Details

Date: 24 May 2017
Orbit: 402 x 408 km, 51.6° (Epoch: 30 May)

Event Time Altitude Azimuth Distance (km) Brightness Sun altitude
Rises 23:27:29 0° 237° (WSW) 2,327 0.0 -13.7°
Reaches altitude 10° 23:29:36 10° 232° (SW) 1,468 -1.1 -13.8°
Maximum altitude 23:32:47 47° 157° (SSE) 549 -3.6 -14.0°
Drops below altitude 10° 23:35:58 10° 82° (E) 1,470 -1.2 -14.2°
Sets 23:38:05 0° 77° (ENE) 2,332 -0.1 -14.4°
